Home > Weather > Luanda > Past weeks

Flag for Angola Past Weather in Luanda, Angola — Yesterday and Last 2 Weeks

Now
68 °F

Passing clouds.


Feels Like: 68 °F
Forecast: 66 / 74 °F
Wind: 9 mph from South

Location: Luanda Airport

Current Time: Jul 29, 2016 at 10:56:39 PM

Latest Report: Jul 29, 2016 at 10:00 PM


Visibility: N/A

Pressure: 30.01 "Hg

Humidity: 88%

Dew Point: 64 °F

Location of LuandaLocation

Past Weather in Luanda — Graph

°F

Luanda Temperature Yesterday

Maximum temperature yesterday: 79 °F (at 2:00 PM)
Minimum temperature yesterday: 64 °F (at 4:00 AM)
Average temperature yesterday: 70 °F

High & Low Weather Summary for the Past Weeks

 TemperatureHumidityPressure
High79 °F (Jul 19, 11:00 AM)94% (Jul 15, 7:00 AM)30.07 "Hg (Jul 15, 7:00 AM)
Low64 °F (Jul 15, 5:00 AM)47% (Jul 27, 1:00 PM)29.80 "Hg (Jul 16, 4:00 PM)
Average71 °F78%29.95 "Hg
* Reported Jul 14 10:00 PM — Jul 29 10:00 PM, Luanda, Weather by CustomWeather, © 2016

Note: Actual official high and low records may vary slightly from our data, if they occured in-between our weather recording intervals... More about our weather records

Advertising

Luanda Weather History for the Previous 24 Hours

Scroll right to see more
 ConditionsComfort  
Time TempWeatherWind HumidityBarometerVisibility
10:00 PM
Fri, Jul 29
68 °FPassing clouds.9 mph88%30.01 "HgN/A
9:00 PM70 °FPassing clouds.7 mph78%29.98 "HgN/A
8:00 PM70 °FClear.9 mph78%29.95 "Hg10 mi
7:00 PM70 °FPassing clouds.12 mph78%29.92 "HgN/A
6:00 PM72 °FPartly sunny.9 mph73%29.92 "HgN/A
5:00 PM73 °FPassing clouds.9 mph65%29.89 "HgN/A
4:00 PM75 °FPassing clouds.9 mph61%29.89 "HgN/A
3:00 PM75 °FPartly sunny.9 mph69%29.92 "HgN/A
2:00 PM77 °FScattered clouds.9 mph61%29.95 "HgN/A
1:00 PM75 °FScattered clouds.7 mph69%29.98 "HgN/A
12:00 PM77 °FScattered clouds.5 mph65%29.98 "HgN/A
11:00 AM75 °FPartly sunny.5 mph65%30.01 "HgN/A
10:00 AM73 °FPartly sunny.7 mph74%30.01 "HgN/A
8:00 AM70 °FPartly sunny.5 mph83%30.01 "HgN/A
7:00 AM68 °FPartly sunny.5 mph88%29.98 "Hg5 mi
6:00 AM68 °FPassing clouds.5 mph88%29.98 "HgN/A
5:00 AM66 °FPassing clouds.5 mph94%29.98 "HgN/A
4:00 AM66 °FPassing clouds.5 mph94%29.98 "HgN/A
2:00 AM66 °FPassing clouds.5 mph94%30.01 "HgN/A
1:00 AM66 °FClear.5 mph94%30.01 "Hg10 mi
12:00 AM66 °FClear.5 mph94%30.01 "Hg10 mi
11:00 PM
Thu, Jul 28
68 °FClear.5 mph88%30.01 "Hg10 mi
10:00 PM68 °FPassing clouds.5 mph88%30.01 "HgN/A
Weather by CustomWeather, © 2016

See weather overviewHow to use our weather pages